Temperature
21 21 21 20 20 20 19 19 19 19 18 18 18 18 18 18 18 18 18 17 17 17 17 17 17 17 17 17 17 17 17 17 17 17 17 17 17 17 17 17 17 17 17
21 21 21 20 20 20 20 19 19 19 18 18 18 18 18 18 18 18 18 17 17 17 17 17 17 17 17 17 17 17 17 17 17 17 17 17 17 17 17 17 17 17 17
21 21 21 21 20 20 20 19 19 19 19 18 18 18 18 18 18 18 18 17 17 17 17 17 17 17 17 17 17 17 17 17 17 17 17 17 17 17 17 17 17 17 17
22 21 21 21 21 20 20 19 19 19 18 18 18 18 18 18 18 18 18 17 17 17 17 17 17 17 17 17 17 17 17 17 17 17 17 17 17 17 16 17 17 17 17
22 22 22 21 21 20 20 19 19 19 18 18 18 18 18 18 18 17 17 17 17 17 17 17 17 17 17 17 17 17 17 17 17 17 17 17 16 17 16 16 16 17 17
22 22 22 21 21 20 20 20 19 19 19 18 18 18 18 18 17 17 17 17 17 17 17 17 17 17 17 17 17 17 17 17 17 17 16 16 16 16 16 16 16 16 16
22 22 22 21 21 21 20 20 19 19 19 18 18 18 18 17 17 17 17 17 17 17 17 17 17 17 17 17 17 17 17 17 16 16 16 16 16 16 16 16 16 16 16
22 22 22 22 21 21 20 20 20 19 19 18 18 18 18 17 17 17 17 17 17 17 17 17 17 17 17 17 17 17 16 16 16 16 16 16 16 16 16 16 16 15 15
22 22 22 22 21 21 20 20 20 19 19 19 18 18 18 17 17 17 17 17 17 17 17 17 17 17 17 17 17 16 16 16 16 16 16 16 16 16 16 16 16 15 15
23 22 22 22 21 21 20 20 20 19 19 18 18 18 18 17 17 17 17 17 17 17 17 17 17 17 17 17 16 16 16 16 16 16 16 16 16 16 16 15 15 15 15
23 23 22 22 21 21 20 20 20 19 19 18 18 18 18 17 17 17 17 17 17 17 17 17 16 16 16 16 16 16 16 16 16 16 16 16 16 16 15 15 15 15 15
23 23 22 21 21 21 20 20 19 19 19 18 18 18 18 18 17 17 17 17 17 17 17 17 16 16 16 16 16 16 16 16 16 16 16 15 15 15 15 15 15 15 14
22 22 22 21 21 20 20 20 19 19 19 18 18 18 18 17 17 17 17 17 17 16 16 16 16 16 16 16 15 15 15 15 15 15 15 15 15 15 15 15 14 14 14
22 22 22 22 21 20 20 20 19 19 19 18 18 18 18 17 17 17 17 16 16 16 16 16 16 16 15 15 15 15 15 15 15 15 15 15 15 14 14 14 14 14 14
22 22 22 21 21 21 20 20 19 19 18 18 18 18 17 17 17 17 17 16 16 16 16 16 15 15 15 15 15 15 15 15 15 14 14 14 14 14 14 14 14 14 13
22 22 21 21 21 20 20 20 19 19 19 18 18 18 17 17 17 17 16 16 16 16 15 15 15 15 15 15 14 14 14 14 14 14 14 14 13 13 13 13 13 13 13
22 22 22 21 21 20 20 20 19 19 18 18 18 17 17 17 17 16 16 16 16 15 15 15 15 15 14 14 14 14 14 14 14 13 13 13 13 13 13 13 13 12 12
22 22 22 21 21 20 20 19 19 19 18 18 18 17 17 16 16 16 16 15 15 15 15 15 15 14 14 14 14 14 14 13 13 13 13 13 13 12 12 12 12 12 12
22 22 22 21 21 20 20 19 19 18 18 18 17 17 17 16 16 16 15 15 15 15 14 14 14 14 14 14 14 14 13 13 13 12 12 12 12 12 12 12 12 12 11
21 21 21 21 20 20 19 19 19 18 18 18 17 17 16 16 16 15 15 15 15 14 14 14 14 14 13 13 13 13 13 13 13 12 12 12 12 12 12 11 11 11 11
21 20 20 20 20 20 19 19 18 18 18 17 17 16 16 16 15 15 15 14 14 14 14 13 13 13 13 13 13 13 13 12 12 12 12 11 11 11 11 11 11 11 10
20 20 20 20 20 19 19 18 18 17 17 17 16 16 16 15 15 15 14 14 14 14 13 13 13 13 13 12 12 12 12 12 12 12 11 11 11 11 11 10 10 10 10
20 19 19 19 19 18 18 18 17 17 16 16 16 16 15 15 15 14 14 14 13 13 13 13 13 12 12 12 12 12 12 11 11 11 11 11 10 10 10 10 10 10 10
19 19 19 18 18 17 17 17 17 16 16 16 15 15 15 14 14 14 14 13 13 13 13 13 12 12 12 12 12 11 11 11 11 11 10 10 10 10 10 10 9 9 9
19 18 18 18 17 17 17 16 16 16 16 15 15 15 14 14 14 13 13 13 13 12 12 12 12 12 12 11 11 11 11 11 10 10 10 10 10 9 9 9 9 9 9
18 18 17 17 17 16 16 16 16 15 15 15 14 14 14 14 13 13 13 12 12 12 12 12 12 11 11 11 11 11 10 10 10 10 10 9 9 9 9 9 9 9 8
Wind_Speed
3 3 4 5 5 4 4 4 4 3 3 2 2 1 1 1 1 2 3 4 5 6 5 3 3 3 3 3 2 2 2 1 1 1 1 1 1 2 2 3 3 4 6
3 4 4 5 5 4 4 4 4 3 3 3 2 2 1 1 1 1 1 3 4 5 5 4 3 3 3 3 3 2 2 2 2 2 1 1 2 1 1 2 3 3 4
6 5 5 5 4 5 5 5 4 4 4 3 2 2 2 1 1 0 1 2 3 4 4 5 4 4 4 4 4 4 4 3 2 2 3 2 3 1 1 1 1 1 2
6 5 5 5 5 5 4 4 3 3 3 3 3 3 2 2 2 2 1 1 1 2 3 4 4 4 3 4 4 4 3 3 3 2 2 2 3 2 1 1 1 1 1
7 6 6 6 5 5 4 4 3 2 2 3 3 2 2 2 1 1 1 1 1 2 2 3 3 3 3 3 3 3 4 3 4 3 2 2 1 2 2 2 1 1 1
7 5 4 4 4 4 4 4 4 3 3 3 3 3 3 2 1 1 1 1 1 1 2 2 3 3 3 3 3 3 4 4 3 3 3 3 3 3 3 3 2 2 1
7 6 6 6 5 5 5 4 4 3 2 3 3 3 3 3 3 2 2 2 1 1 2 2 2 3 3 3 3 3 4 4 4 4 3 4 3 3 3 3 2 2 1
7 7 7 7 6 6 5 5 4 3 3 3 3 2 2 2 2 2 2 2 2 3 2 2 2 2 2 2 2 2 3 3 4 4 3 3 3 3 4 3 3 2 2
7 7 6 7 7 6 6 5 5 3 3 3 2 2 2 2 2 2 1 1 1 2 1 1 1 1 1 1 2 1 2 2 3 3 3 3 3 3 3 3 4 4 3
6 6 6 6 5 5 5 5 4 4 3 3 3 2 2 2 2 2 1 1 1 1 1 1 0 1 1 1 1 1 1 1 2 2 2 2 2 2 2 3 3 3 3
7 6 5 5 5 4 4 4 4 3 3 2 2 2 2 2 1 1 1 0 0 1 1 1 0 0 0 0 1 1 1 1 1 1 1 2 1 1 1 2 2 2 2
6 5 6 6 5 5 4 3 3 3 3 3 2 2 1 2 2 1 1 1 1 1 1 1 1 1 1 0 0 1 1 1 0 0 1 1 1 1 1 2 2 2 2
5 5 5 6 5 5 4 3 3 3 2 3 3 2 1 2 2 1 1 2 1 1 2 2 2 1 2 1 1 1 1 0 0 1 1 1 1 1 1 2 2 2 2
6 5 5 4 4 4 4 4 3 3 3 3 3 2 1 1 1 1 1 2 2 2 2 2 2 2 2 2 1 2 1 1 2 2 2 1 1 2 2 2 2 2 3
6 6 6 5 5 5 5 4 4 3 3 4 3 2 2 1 2 2 2 2 2 2 2 3 3 2 2 1 1 1 1 2 2 2 2 2 2 2 2 2 3 3 3
8 6 6 6 6 6 5 4 4 4 4 4 3 2 2 2 2 2 2 2 2 2 3 2 2 2 2 2 2 2 2 2 2 2 2 2 3 4 4 4 4 4 4
8 7 7 7 7 6 6 5 4 4 4 4 3 2 2 2 2 2 2 2 2 2 3 2 2 2 2 2 2 2 2 2 2 1 1 2 2 3 3 5 6 5 5
7 7 7 6 5 5 5 5 5 4 4 3 3 2 3 3 3 3 3 2 2 2 2 2 2 2 3 3 2 2 2 2 2 2 1 2 2 2 3 4 4 4 3
7 6 6 6 6 6 6 6 5 4 4 3 3 2 3 3 3 3 2 2 2 2 2 2 2 2 3 4 3 3 3 3 3 3 3 2 2 3 4 5 4 3 2
5 6 6 6 6 5 6 6 5 5 4 3 3 3 3 4 3 3 2 2 3 2 2 3 3 3 3 4 4 4 3 3 3 3 4 4 4 4 5 4 3 3 1
6 7 7 6 5 5 6 6 5 4 3 3 3 3 3 3 3 3 2 2 3 3 3 3 3 3 4 4 4 4 3 2 2 2 2 2 4 4 5 4 3 2 2
7 7 6 5 5 6 6 5 4 3 4 4 4 3 3 3 3 4 3 3 3 4 3 3 3 3 3 4 3 4 3 3 2 1 1 2 4 5 5 4 3 3 3
7 6 7 6 4 3 5 5 3 4 5 5 4 3 3 3 3 4 4 3 3 3 2 2 1 2 3 3 4 4 3 3 2 2 3 3 4 4 4 4 5 4 3
6 6 7 7 4 2 3 4 4 5 5 5 4 3 4 4 4 3 3 3 2 2 1 1 0 1 2 2 3 3 2 3 3 2 3 4 5 4 4 4 3 3 2
5 6 7 7 6 4 3 3 4 5 5 4 4 3 3 4 3 3 3 2 1 1 1 1 1 1 0 2 1 1 1 1 2 2 3 3 3 3 3 3 2 2 2
5 6 6 6 5 5 4 3 3 5 6 4 3 3 3 3 3 3 3 6 4 3 3 2 2 1 0 0 1 2 3 3 4 4 2 2 2 2 1 1 2 2 1
Wind_Direction
197 167 168 164 158 158 159 168 169 171 153 144 150 163 211 216 230 230 221 215 214 206 195 202 196 185 189 202 186 170 181 202 153 111 357 339 297 246 247 236 229 229 227
187 174 161 162 169 170 172 174 186 184 181 169 159 164 176 200 218 245 237 226 219 214 209 196 198 194 189 189 192 177 175 205 172 155 148 319 330 327 276 229 224 234 227
196 189 178 174 168 178 187 191 194 192 189 170 127 100 78 57 47 290 263 254 235 228 219 204 197 198 192 203 206 192 187 203 208 188 168 178 228 292 339 303 239 227 215
186 183 178 179 184 192 181 178 178 182 176 156 157 162 174 198 222 228 241 278 265 245 228 207 202 201 199 207 215 201 197 189 210 212 212 202 176 184 264 323 295 254 239
180 184 185 184 182 177 167 167 158 170 169 161 175 181 200 210 213 218 233 283 289 264 231 205 197 201 204 212 217 204 200 199 203 202 190 194 200 195 197 245 273 312 270
177 179 174 158 162 161 159 163 172 194 185 173 179 188 201 201 202 230 233 259 278 274 256 216 202 205 208 216 221 213 206 211 208 206 196 185 187 196 196 217 231 244 277
170 170 168 166 170 170 170 169 176 198 186 174 184 185 189 191 205 225 226 238 262 267 261 230 209 212 215 216 212 208 212 211 208 209 215 212 213 190 184 193 216 229 248
174 180 180 178 181 178 172 169 179 194 185 182 196 183 176 189 225 228 229 228 243 258 265 232 213 214 217 221 204 209 220 212 213 220 216 217 223 205 195 191 188 214 235
180 185 183 181 183 180 179 180 181 189 190 187 181 174 175 194 232 238 236 253 264 270 284 252 230 229 218 208 187 205 230 215 215 223 221 220 226 212 210 200 195 194 221
179 183 182 182 182 181 177 171 170 183 186 177 182 179 175 192 217 202 215 245 289 342 359 340 272 235 196 167 165 196 217 206 237 227 213 221 227 216 202 202 203 202 205
186 188 179 166 158 155 162 168 168 170 172 177 174 160 156 163 158 158 173 164 21 37 32 12 357 6 166 179 181 201 190 210 245 225 199 222 215 203 196 186 190 189 176
176 172 164 153 153 160 164 169 168 171 175 164 149 153 126 115 126 124 109 86 55 34 48 58 59 44 35 53 166 271 230 214 247 242 175 244 218 203 191 179 186 185 180
164 157 154 158 161 161 160 160 162 165 153 141 139 127 121 125 128 122 104 88 71 48 46 60 56 40 42 50 50 43 71 81 65 93 131 207 172 197 184 164 166 170 169
167 163 164 162 158 157 154 152 162 161 140 127 128 134 151 156 148 127 102 97 95 76 54 55 56 54 59 56 51 60 72 71 66 80 83 92 160 183 176 173 161 152 148
173 176 173 165 158 155 156 158 155 143 139 134 141 159 150 133 118 105 99 94 88 85 79 70 55 48 60 57 67 77 84 95 86 72 68 71 88 118 149 153 152 149 145
184 177 171 166 166 167 169 163 157 157 148 149 165 158 143 135 121 106 98 95 86 76 73 71 66 48 38 47 64 93 87 80 91 84 62 57 60 69 85 101 111 129 143
182 177 177 179 176 173 169 169 171 156 146 157 158 150 153 145 134 112 99 98 93 85 75 64 68 52 25 37 49 86 104 91 75 78 75 63 54 73 88 83 83 82 85
179 179 177 173 165 160 154 151 148 150 151 154 157 164 159 149 131 116 111 101 91 87 76 66 60 53 25 30 53 83 93 83 64 58 75 90 69 81 105 101 88 76 62
170 169 168 162 152 152 149 140 142 145 148 158 166 165 156 144 135 126 123 123 103 77 59 58 58 53 23 26 48 89 86 75 54 45 60 86 87 79 104 111 107 87 56
140 140 134 128 139 149 146 140 146 147 159 168 159 145 142 145 146 140 131 114 110 107 83 61 50 52 37 27 47 74 88 75 59 51 50 56 76 80 95 110 116 109 70
131 132 129 136 144 141 139 142 148 166 171 138 120 117 126 140 140 130 119 110 106 96 80 72 51 44 38 37 54 66 83 86 72 59 48 41 64 79 86 90 95 111 104
124 125 127 129 129 136 141 144 158 162 129 122 118 118 117 123 122 118 111 105 108 101 83 73 50 33 28 34 39 59 69 86 91 70 44 42 71 80 78 76 65 74 84
131 128 128 118 112 128 140 147 158 131 124 120 120 118 108 97 111 119 119 111 105 108 94 81 55 19 18 19 26 38 54 71 77 64 65 64 71 81 74 55 61 74 76
137 131 127 126 130 133 126 134 129 127 122 123 123 120 115 102 91 93 104 112 117 122 121 108 73 20 20 14 12 22 45 59 65 53 57 68 68 67 60 50 50 51 60
135 135 138 140 142 135 121 117 125 124 119 120 123 119 119 122 109 88 71 91 83 156 173 186 170 157 321 306 305 106 83 89 96 85 64 59 56 54 45 41 39 35 38
135 135 133 132 133 132 128 126 130 130 130 131 135 134 132 127 124 115 78 51 54 54 76 93 127 129 296 357 99 95 87 84 101 94 79 71 64 56 35 22 10 9 4
Height
1534 1536 1537 1538 1540 1541 1542 1543 1544 1545 1545 1546 1547 1547 1549 1550 1551 1552 1553 1554 1554 1555 1556 1557 1557 1558 1558 1559 1559 1560 1560 1561 1561 1561 1561 1562 1562 1562 1562 1563 1563 1564 1564
1533 1534 1535 1537 1538 1540 1541 1542 1543 1544 1545 1546 1547 1547 1548 1549 1550 1551 1552 1552 1553 1554 1555 1555 1556 1556 1557 1558 1558 1559 1559 1559 1559 1560 1560 1560 1561 1560 1560 1561 1561 1562 1562
1531 1533 1534 1536 1537 1539 1540 1542 1543 1544 1545 1546 1546 1547 1548 1548 1549 1550 1550 1551 1552 1552 1553 1553 1554 1555 1555 1556 1556 1557 1557 1557 1558 1558 1559 1558 1558 1558 1558 1558 1559 1559 1560
1530 1532 1533 1535 1536 1538 1540 1541 1543 1544 1545 1545 1546 1546 1547 1547 1548 1548 1549 1550 1550 1550 1551 1551 1552 1552 1553 1554 1554 1555 1555 1555 1555 1555 1556 1557 1556 1557 1556 1556 1557 1557 1558
1528 1530 1532 1534 1536 1538 1540 1541 1542 1543 1544 1544 1545 1545 1546 1546 1546 1547 1547 1548 1548 1548 1549 1549 1550 1550 1551 1552 1552 1552 1552 1552 1552 1552 1553 1553 1554 1554 1554 1554 1554 1555 1555
1527 1529 1532 1534 1536 1537 1539 1540 1541 1542 1542 1543 1543 1544 1544 1545 1545 1545 1545 1546 1546 1547 1547 1547 1548 1548 1549 1549 1549 1549 1549 1549 1549 1549 1550 1550 1551 1551 1551 1551 1551 1551 1552
1526 1528 1530 1532 1534 1536 1538 1539 1540 1541 1541 1541 1542 1542 1542 1543 1543 1543 1544 1544 1544 1545 1545 1545 1546 1546 1546 1546 1546 1547 1546 1546 1546 1546 1547 1547 1548 1548 1548 1548 1548 1548 1549
1525 1527 1529 1531 1533 1535 1537 1538 1539 1539 1540 1540 1540 1541 1541 1542 1542 1542 1543 1543 1543 1543 1543 1543 1544 1544 1544 1544 1544 1544 1543 1543 1543 1543 1544 1544 1544 1545 1545 1545 1546 1545 1546
1523 1526 1528 1530 1532 1534 1535 1537 1538 1539 1539 1539 1540 1540 1541 1541 1541 1541 1542 1542 1542 1542 1541 1542 1542 1541 1541 1541 1541 1541 1541 1541 1540 1540 1541 1541 1541 1542 1542 1542 1543 1544 1543
1522 1525 1527 1529 1531 1533 1535 1536 1537 1538 1538 1538 1539 1539 1540 1540 1540 1541 1540 1540 1540 1540 1540 1540 1539 1539 1539 1539 1538 1538 1538 1538 1538 1538 1538 1538 1538 1538 1539 1539 1540 1540 1541
1520 1523 1526 1529 1531 1533 1534 1535 1536 1537 1537 1538 1538 1538 1538 1539 1539 1539 1539 1539 1538 1538 1538 1538 1538 1537 1537 1537 1537 1536 1536 1536 1535 1535 1535 1535 1536 1536 1536 1536 1536 1537 1538
1519 1522 1525 1527 1530 1531 1533 1534 1535 1536 1536 1537 1537 1537 1537 1537 1537 1537 1538 1538 1537 1537 1537 1536 1536 1536 1535 1535 1535 1534 1534 1534 1533 1533 1532 1532 1533 1533 1533 1533 1534 1534 1535
1519 1521 1524 1526 1528 1530 1532 1533 1534 1535 1535 1536 1536 1536 1536 1536 1536 1536 1536 1536 1536 1536 1536 1535 1535 1535 1534 1534 1533 1533 1532 1531 1531 1531 1530 1530 1530 1530 1530 1531 1531 1531 1532
1517 1520 1522 1525 1527 1529 1531 1532 1533 1534 1534 1535 1535 1535 1535 1536 1536 1535 1535 1535 1535 1535 1535 1534 1534 1534 1533 1533 1532 1531 1530 1530 1530 1529 1529 1528 1528 1528 1528 1528 1528 1529 1529
1515 1518 1520 1523 1525 1527 1529 1531 1532 1533 1534 1534 1534 1534 1534 1535 1535 1534 1534 1534 1534 1534 1534 1533 1533 1532 1532 1531 1531 1530 1530 1529 1528 1528 1527 1527 1526 1526 1526 1526 1526 1526 1527
1513 1516 1518 1521 1524 1526 1527 1529 1530 1531 1532 1533 1533 1533 1533 1533 1533 1533 1533 1533 1533 1533 1532 1532 1532 1531 1531 1530 1530 1529 1528 1528 1527 1526 1526 1526 1525 1525 1524 1524 1524 1525 1525
1511 1514 1516 1519 1522 1524 1526 1527 1529 1530 1530 1531 1531 1532 1532 1532 1532 1532 1532 1532 1532 1532 1531 1531 1530 1530 1530 1530 1529 1528 1527 1526 1526 1525 1525 1525 1524 1524 1524 1523 1523 1524 1524
1509 1512 1515 1517 1520 1523 1525 1526 1528 1528 1529 1529 1530 1530 1531 1531 1531 1531 1531 1531 1531 1530 1530 1530 1530 1529 1529 1528 1528 1527 1526 1525 1525 1525 1524 1524 1524 1523 1523 1523 1523 1523 1523
1507 1511 1514 1517 1519 1521 1523 1524 1526 1527 1527 1528 1529 1529 1530 1530 1530 1530 1529 1529 1529 1530 1530 1529 1529 1528 1528 1527 1527 1526 1525 1524 1524 1523 1523 1523 1523 1522 1522 1522 1522 1522 1522
1506 1509 1512 1515 1517 1520 1522 1523 1524 1525 1526 1527 1528 1528 1529 1529 1529 1529 1529 1529 1528 1529 1529 1529 1528 1527 1527 1526 1526 1525 1524 1523 1523 1523 1523 1522 1522 1522 1521 1521 1521 1521 1521
1506 1508 1510 1513 1516 1519 1521 1522 1522 1523 1525 1526 1527 1527 1527 1527 1528 1528 1528 1528 1528 1528 1528 1528 1527 1527 1526 1526 1525 1524 1524 1523 1523 1522 1522 1522 1522 1522 1521 1521 1520 1520 1521
1505 1507 1509 1512 1515 1517 1518 1520 1521 1522 1523 1524 1525 1526 1526 1526 1526 1526 1526 1527 1527 1527 1527 1527 1527 1526 1526 1525 1524 1524 1523 1523 1522 1522 1522 1522 1522 1521 1521 1520 1520 1520 1520
1504 1506 1509 1511 1514 1516 1517 1518 1519 1521 1522 1523 1523 1524 1524 1524 1524 1525 1525 1526 1526 1526 1526 1526 1526 1525 1525 1525 1524 1524 1523 1523 1522 1522 1521 1521 1521 1521 1520 1520 1520 1520 1519
1503 1505 1507 1509 1512 1515 1516 1517 1518 1520 1521 1522 1522 1523 1524 1523 1524 1524 1524 1525 1525 1525 1526 1525 1525 1525 1524 1524 1523 1523 1523 1522 1521 1521 1520 1520 1520 1519 1519 1519 1519 1519 1519
1503 1505 1507 1508 1510 1513 1515 1517 1518 1518 1519 1521 1521 1522 1523 1523 1523 1524 1524 1524 1525 1525 1525 1525 1525 1524 1524 1523 1523 1522 1522 1521 1520 1520 1519 1519 1519 1518 1518 1518 1518 1518 1518
1502 1504 1506 1508 1510 1512 1514 1516 1517 1518 1518 1519 1521 1521 1522 1522 1522 1523 1523 1523 1524 1524 1524 1524 1524 1524 1524 1523 1522 1522 1521 1520 1520 1519 1518 1518 1518 1518 1518 1517 1517 1517 1517